[[{"header":{"parameterUnit":"m.s-1","parameterCategory":2,"la1":30.2991,"la2":30.254,"lo1":-89.0895,"lo2":-89.0444,"dy":0.0017,"dx":0.0017,"nx":28,"ny":28,"refTime":"2023-07-26T03:00:00:Z","depth":"0","parameterNumber":2,"parameterNumberName":"U-component_of_CURRENTS"},"data":[0,0,0,0,0,0,0,0,0,0,0,0,0,0,0,0,0,0,0,0,0,0,0,0,0,0,0,0,0,0,0,0,0,0,0,0,0,0,0,0,0,0,0,0,0,0,0,0,0,0,0,0,0,0,0,0,0,0,-0.0417,-0.0417,0,-0.045,-0.045,-0.0451,-0.0453,-0.0452,-0.0452,-0.0451,-0.0579,-0.0583,-0.0587,0,0,0,0,0,0,0,0,0,0,0,0,0,-0.0456,-0.0454,-0.0417,-0.0417,-0.0417,-0.0449,-0.045,-0.0451,-0.0453,-0.0452,-0.0452,-0.0451,-0.0578,-0.0583,-0.0588,0,0,0,0,0,0,0,0,0,0,0,0,0,-0.0461,-0.0454,-0.0417,-0.042,-0.0421,-0.0449,-0.045,-0.0451,-0.0453,-0.0452,-0.0451,-0.045,-0.0576,-0.0582,-0.0588,-0.0644,0,0,-0.0606,-0.0609,0,0,0,0,0,0,0,0,-0.046,-0.046,-0.042,-0.042,-0.042,-0.0444,-0.0511,-0.0519,-0.0453,-0.0444,-0.0451,-0.045,-0.0542,-0.0551,-0.0561,-0.065,-0.0655,-0.0607,-0.0611,-0.0613,-0.0615,0,0,0,0,0,0,0,-0.046,-0.0459,-0.0433,-0.042,-0.042,-0.0454,-0.0453,-0.0513,-0.0502,-0.0445,-0.0444,-0.0444,-0.0543,-0.0555,-0.0565,-0.0657,-0.0607,-0.0612,-0.0616,-0.0618,-0.0827,-0.0828,0,0,0,0,0,0,-0.0446,-0.0458,-0.0432,-0.0433,-0.0436,-0.0453,-0.0452,-0.044,-0.0499,-0.0505,-0.0444,-0.0444,-0.0546,-0.0558,-0.0569,-0.0648,-0.0613,-0.0619,-0.0622,-0.0825,-0.0827,-0.0829,0,0,0,0,0,0,-0.0447,-0.0443,-0.043,-0.0445,-0.0446,-0.0452,-0.0439,-0.0441,-0.0454,-0.0497,-0.0506,-0.0455,-0.0545,-0.0561,-0.064,-0.0653,-0.0621,-0.0627,-0.0822,-0.0825,-0.0828,-0.0801,0,0,0,0,0,0,-0.0447,-0.0443,-0.0432,-0.0444,-0.0444,-0.0461,-0.0439,-0.0442,-0.0453,-0.0453,-0.051,-0.052,-0.0546,-0.0631,-0.0646,-0.0661,-0.0632,-0.082,-0.0824,-0.0827,-0.0799,-0.0803,-0.0805,0,0,0,0,0,-0.0448,-0.0438,-0.0431,-0.0428,-0.0427,-0.0462,-0.0467,-0.0471,-0.0455,-0.0477,-0.0515,-0.0518,-0.0664,-0.0638,-0.0655,-0.0671,-0.0818,-0.0823,-0.0827,-0.0798,-0.0802,-0.0805,0,0,0,0,0,0,-0.0442,-0.0438,-0.043,-0.0415,-0.0442,-0.0462,-0.0473,-0.0476,-0.052,-0.0521,-0.0553,-0.0568,-0.0637,-0.0672,-0.0642,-0.0746,-0.0739,-0.0747,-0.0711,-0.0715,-0.0718,-0.0697,-0.0637,0,0,0,0,0,-0.0436,-0.0434,-0.0442,-0.0437,-0.0444,-0.046,-0.0471,-0.0483,-0.0518,-0.0533,-0.0573,-0.0622,-0.067,-0.0705,-0.0759,-0.0826,-0.0815,-0.0848,-0.0851,-0.0853,-0.085,-0.0836,-0.0835,-0.0844,-0.0843,-0.0843,0,0,-0.0442,-0.043,-0.0435,-0.0437,-0.0451,-0.0494,-0.0466,-0.0494,-0.0536,-0.0546,-0.0617,-0.0639,-0.0692,-0.0758,-0.0792,-0.0787,-0.0847,-0.0859,-0.0859,-0.0856,-0.084,-0.0838,-0.0837,-0.0847,-0.0846,-0.0845,0,0,-0.0454,-0.0433,-0.0441,-0.0469,-0.0489,-0.0516,-0.0525,-0.0558,-0.0572,-0.065,-0.065,-0.0676,-0.0783,-0.0794,-0.0819,-0.0878,-0.0862,-0.0903,-0.0901,-0.0887,-0.0885,-0.0883,-0.0861,-0.0857,-0.0904,-0.0904,-0.0904,0,-0.0459,-0.0451,-0.0457,-0.0478,-0.05,-0.0529,-0.0564,-0.0606,-0.0665,-0.0667,-0.0683,-0.0758,-0.0796,-0.0829,-0.0847,-0.088,-0.0868,-0.0874,-0.0885,-0.0883,-0.0881,-0.0859,-0.0855,-0.0904,-0.0904,-0.0904,-0.0904,0,-0.0485,-0.0487,-0.0497,-0.0537,-0.0578,-0.0609,-0.0666,-0.0705,-0.0729,-0.075,-0.0783,-0.0818,-0.0843,-0.0864,-0.0881,-0.0883,-0.0877,-0.0881,-0.086,-0.0877,-0.0855,-0.0851,-0.0902,-0.0903,-0.0903,-0.0903,0,0,-0.0461,-0.0504,-0.0504,-0.0515,-0.0599,-0.0625,-0.0712,-0.0759,-0.0766,-0.0831,-0.0828,-0.0892,-0.0857,-0.0882,-0.0878,-0.0875,-0.0848,-0.0874,-0.0873,-0.0824,-0.0807,-0.0767,-0.0758,-0.0846,-0.0846,-0.0845,-0.0793,0,-0.0468,-0.0493,-0.0532,-0.059,-0.0608,-0.0672,-0.0727,-0.0784,-0.0831,-0.0849,-0.0858,-0.0868,-0.0882,-0.086,-0.0862,-0.086,-0.0839,-0.0861,-0.0823,-0.0822,-0.076,-0.0753,-0.0693,-0.0639,-0.0789,-0.0788,-0.0788,0,-0.0468,-0.0475,-0.0513,-0.0553,-0.0565,-0.0618,-0.0672,-0.0729,-0.0782,-0.0799,-0.0816,-0.0831,-0.0835,-0.0835,-0.0827,-0.084,-0.0816,-0.0813,-0.081,-0.0778,-0.0774,-0.0651,-0.0626,-0.0539,-0.0782,-0.0782,-0.0783,0,-0.0408,-0.0457,-0.047,-0.0496,-0.0567,-0.058,-0.0621,-0.069,-0.0703,-0.0751,-0.0756,-0.0779,-0.0769,-0.0772,-0.0785,-0.0797,-0.0769,-0.0782,-0.0716,-0.0713,-0.0658,-0.0651,-0.0519,-0.0745,-0.0745,-0.0745,-0.0745,0,-0.0381,-0.0387,-0.0427,-0.0435,-0.043,-0.0504,-0.0507,-0.0556,-0.0596,-0.0605,-0.069,-0.0698,-0.0751,-0.0761,-0.0768,-0.0733,-0.0748,-0.0706,-0.0694,-0.065,-0.0642,-0.0563,-0.0643,-0.0743,-0.0743,-0.0744,-0.0744,0,-0.0319,-0.0351,-0.0357,-0.0396,-0.0402,-0.0396,-0.0432,-0.0436,-0.0484,-0.0507,-0.0514,-0.0616,-0.0641,-0.0682,-0.0687,-0.0689,-0.0662,-0.0643,-0.0587,-0.057,-0.0437,-0.0523,-0.0553,-0.0531,-0.0567,-0.0565,-0.0564,0,-0.0294,-0.0288,-0.0309,-0.031,-0.0325,-0.0322,-0.0321,-0.0366,-0.0383,-0.046,-0.0463,-0.0511,-0.0562,-0.0572,-0.0579,-0.0565,-0.0587,-0.0481,-0.0493,-0.0405,-0.0492,-0.0594,-0.0581,-0.041,-0.0408,-0.0406,-0.0404,0,-0.0248,-0.0251,-0.0259,-0.0244,-0.0242,-0.024,-0.0247,-0.0233,-0.0296,-0.0318,-0.0378,-0.043,-0.0469,-0.0465,-0.0449,-0.0441,-0.0485,-0.044,-0.0359,-0.0369,-0.0465,-0.0444,-0.047,-0.0388,-0.0389,-0.039,-0.0391,-0.0392,-0.022,-0.0205,-0.0212,-0.0193,-0.0198,-0.0188,-0.0165,-0.0182,-0.0185,-0.0219,-0.0284,-0.0309,-0.0318,-0.0315,-0.0299,-0.0196,-0.0364,-0.0157,-0.027,-0.0377,-0.0357,-0.0342,-0.0244,-0.0244,-0.0245,-0.0246,-0.0246,0,-0.0203,-0.0187,-0.0168,-0.0163,-0.0158,-0.0163,-0.0145,-0.0122,-0.012,-0.0113,-0.0149,-0.0094,-0.0073,-0.0052,0.0011,0.0014,-0.0051,-0.0005,-0.0103,-0.0097,-0.0042,-0.0024,0.0141,0.0141,0.0141,0.014,0.014,0.014,-0.02,-0.0178,-0.0155,-0.0135,-0.0132,-0.0105,-0.0087,-0.0059,-0.0024,0.0046,0.0111,0.012,0.0167,0.0144,0.0197,0.016,0.01,-0.0012,-0.0039,0.0055,0.0035,0.0015,0.0028,0.02,0.02,0.0001,-0.0002,-0.0003]},{"header":{"parameterUnit":"m.s-1","parameterCategory":2,"la1":30.2991,"la2":30.254,"lo1":-89.0895,"lo2":-89.0444,"dy":0.0017,"dx":0.0017,"nx":28,"ny":28,"refTime":"2023-07-26T03:00:00:Z","depth":"0","parameterNumber":3,"parameterNumberName":"V-component_of_CURRENTS"},"data":[0,0,0,0,0,0,0,0,0,0,0,0,0,0,0,0,0,0,0,0,0,0,0,0,0,0,0,0,0,0,0,0,0,0,0,0,0,0,0,0,0,0,0,0,0,0,0,0,0,0,0,0,0,0,0,0,0,0,-0.0841,-0.0842,0,-0.0934,-0.0934,-0.0935,-0.0961,-0.0961,-0.0961,-0.0961,-0.0888,-0.0886,-0.0884,0,0,0,0,0,0,0,0,0,0,0,0,0,-0.0749,-0.075,-0.0841,-0.0843,-0.0844,-0.0933,-0.0934,-0.0935,-0.0961,-0.0961,-0.0961,-0.096,-0.0889,-0.0886,-0.0884,0,0,0,0,0,0,0,0,0,0,0,0,0,-0.0806,-0.075,-0.0841,-0.0871,-0.0875,-0.0933,-0.0934,-0.0935,-0.0961,-0.0961,-0.0961,-0.096,-0.0889,-0.0887,-0.0884,-0.0871,0,0,-0.0876,-0.0874,0,0,0,0,0,0,0,0,-0.0802,-0.0808,-0.0865,-0.0869,-0.0873,-0.0939,-0.0876,-0.0907,-0.0961,-0.0924,-0.0961,-0.096,-0.0893,-0.089,-0.0904,-0.0868,-0.0865,-0.0875,-0.0874,-0.0873,-0.0872,0,0,0,0,0,0,0,-0.0798,-0.0805,-0.0873,-0.0867,-0.0872,-0.0901,-0.0908,-0.0882,-0.0902,-0.0927,-0.093,-0.0947,-0.0893,-0.0907,-0.0902,-0.0864,-0.0876,-0.0873,-0.0871,-0.087,-0.0852,-0.0853,0,0,0,0,0,0,-0.0792,-0.0801,-0.0871,-0.0877,-0.0841,-0.0903,-0.0911,-0.0915,-0.0906,-0.0907,-0.0947,-0.0948,-0.0911,-0.0905,-0.0899,-0.0891,-0.0873,-0.087,-0.0869,-0.0851,-0.0852,-0.0853,0,0,0,0,0,0,-0.079,-0.0797,-0.0867,-0.0845,-0.0857,-0.0905,-0.091,-0.0917,-0.0928,-0.0924,-0.0921,-0.0952,-0.0911,-0.0903,-0.0905,-0.0887,-0.0869,-0.0866,-0.0849,-0.0851,-0.0853,-0.0868,0,0,0,0,0,0,-0.0786,-0.0795,-0.0798,-0.0844,-0.0858,-0.0899,-0.0911,-0.0919,-0.0941,-0.0943,-0.0926,-0.092,-0.091,-0.091,-0.0902,-0.0883,-0.0864,-0.0848,-0.085,-0.0852,-0.0866,-0.087,-0.0873,0,0,0,0,0,-0.0783,-0.0796,-0.0797,-0.0806,-0.0858,-0.0899,-0.0908,-0.094,-0.0942,-0.0948,-0.0958,-0.092,-0.0917,-0.0909,-0.09,-0.0879,-0.0847,-0.085,-0.0852,-0.0864,-0.0869,-0.0873,0,0,0,0,0,0,-0.0773,-0.0801,-0.0803,-0.0827,-0.0856,-0.0905,-0.0924,-0.0937,-0.0952,-0.0948,-0.0938,-0.0934,-0.0925,-0.0912,-0.0903,-0.0886,-0.0873,-0.0874,-0.0886,-0.089,-0.0893,-0.0875,-0.0862,0,0,0,0,0,-0.0767,-0.0774,-0.0809,-0.0829,-0.0841,-0.0876,-0.0897,-0.0913,-0.0936,-0.0943,-0.0943,-0.0939,-0.093,-0.0919,-0.0912,-0.09,-0.0887,-0.0883,-0.0887,-0.089,-0.0873,-0.0881,-0.0883,-0.0862,-0.0862,-0.0862,0,0,-0.0771,-0.0789,-0.0794,-0.0826,-0.0851,-0.0868,-0.0887,-0.0915,-0.0924,-0.0928,-0.0943,-0.0946,-0.0933,-0.0931,-0.0924,-0.0915,-0.089,-0.0893,-0.0895,-0.0876,-0.0884,-0.0885,-0.0887,-0.0863,-0.0863,-0.0863,0,0,-0.0794,-0.0793,-0.081,-0.0823,-0.0855,-0.0867,-0.0871,-0.0912,-0.0921,-0.094,-0.0946,-0.0956,-0.0943,-0.0944,-0.0935,-0.0953,-0.0911,-0.0941,-0.0935,-0.0944,-0.0945,-0.0945,-0.0929,-0.0928,-0.094,-0.094,-0.094,0,-0.08,-0.0822,-0.0824,-0.0843,-0.0853,-0.0861,-0.0876,-0.0886,-0.0926,-0.093,-0.0942,-0.0956,-0.0948,-0.0939,-0.0953,-0.0955,-0.0946,-0.0915,-0.0946,-0.0947,-0.0947,-0.093,-0.0929,-0.0941,-0.0941,-0.0941,-0.0941,0,-0.0829,-0.0847,-0.086,-0.0868,-0.0871,-0.0889,-0.0891,-0.0895,-0.0903,-0.092,-0.0928,-0.0949,-0.0954,-0.0955,-0.0953,-0.0949,-0.0937,-0.095,-0.0929,-0.095,-0.0931,-0.093,-0.0943,-0.0942,-0.0942,-0.0942,0,0,-0.0843,-0.0875,-0.0878,-0.0888,-0.0882,-0.0892,-0.0878,-0.0882,-0.0878,-0.0907,-0.0919,-0.0924,-0.0939,-0.0932,-0.094,-0.0947,-0.0949,-0.0945,-0.0945,-0.0917,-0.0946,-0.1007,-0.1011,-0.0967,-0.0967,-0.0967,-0.0931,0,-0.0871,-0.091,-0.0905,-0.0923,-0.0938,-0.0912,-0.0898,-0.0887,-0.0888,-0.0901,-0.0909,-0.0924,-0.0927,-0.0938,-0.0943,-0.0951,-0.0946,-0.0956,-0.094,-0.0938,-0.0981,-0.1012,-0.0981,-0.0952,-0.0929,-0.0929,-0.0929,0,-0.0891,-0.0919,-0.0944,-0.0948,-0.0948,-0.0943,-0.0905,-0.0902,-0.0889,-0.0889,-0.0896,-0.0909,-0.0916,-0.0931,-0.0928,-0.0934,-0.0931,-0.0937,-0.0937,-0.0982,-0.0998,-0.093,-0.095,-0.0687,-0.0926,-0.0926,-0.0926,0,-0.089,-0.0936,-0.0954,-0.0956,-0.0958,-0.0948,-0.0936,-0.0904,-0.0897,-0.0891,-0.0896,-0.0897,-0.0916,-0.0913,-0.0924,-0.0923,-0.0927,-0.0933,-0.0976,-0.0978,-0.0942,-0.0943,-0.0695,-0.0925,-0.0925,-0.0925,-0.0925,0,-0.0901,-0.0918,-0.0963,-0.0971,-0.0971,-0.0963,-0.0951,-0.0923,-0.0914,-0.0914,-0.0904,-0.0916,-0.0916,-0.0925,-0.0919,-0.0947,-0.0921,-0.0971,-0.0981,-0.0949,-0.0951,-0.0715,-0.0555,-0.0923,-0.0924,-0.0924,-0.0924,0,-0.0873,-0.0912,-0.0939,-0.0968,-0.097,-0.0964,-0.0958,-0.0954,-0.0937,-0.0939,-0.0941,-0.0933,-0.0944,-0.094,-0.0941,-0.0958,-0.0851,-0.098,-0.0935,-0.0943,-0.077,-0.0615,-0.0488,-0.0386,-0.1021,-0.1022,-0.1024,0,-0.0852,-0.0874,-0.0923,-0.0935,-0.0947,-0.0956,-0.095,-0.0949,-0.0958,-0.0957,-0.0967,-0.0976,-0.0991,-0.1011,-0.1037,-0.1039,-0.0849,-0.1008,-0.1019,-0.0749,-0.0581,-0.0547,-0.0465,-0.0957,-0.0958,-0.0958,-0.0959,0,-0.0816,-0.0842,-0.0865,-0.0899,-0.0916,-0.0933,-0.0949,-0.096,-0.097,-0.0988,-0.101,-0.1027,-0.106,-0.1083,-0.1101,-0.1081,-0.0811,-0.1023,-0.074,-0.0509,-0.0453,-0.0364,-0.0964,-0.0963,-0.0962,-0.0962,-0.0962,-0.0962,-0.0773,-0.0784,-0.083,-0.0855,-0.0876,-0.0902,-0.0912,-0.0957,-0.0983,-0.1004,-0.1035,-0.1067,-0.1085,-0.113,-0.105,-0.0832,-0.085,-0.0733,-0.0565,-0.0558,-0.0457,-0.1075,-0.1104,-0.1104,-0.1104,-0.1105,-0.1105,0,-0.0726,-0.0758,-0.078,-0.0822,-0.0841,-0.0863,-0.0898,-0.0915,-0.0961,-0.1015,-0.1045,-0.1094,-0.0998,-0.089,-0.0673,-0.0401,-0.0338,-0.0196,-0.0043,0.0017,-0.0512,-0.0504,-0.0406,-0.0407,-0.0407,-0.0407,-0.0407,-0.0408,-0.0702,-0.0725,-0.0753,-0.0784,-0.0807,-0.0822,-0.0838,-0.0871,-0.0915,-0.0976,-0.1037,-0.1077,-0.0859,-0.0309,0.018,0.0263,0.0573,0.0522,0.068,0.046,0.0425,0.0393,0.044,0.0733,0.0735,0.1133,0.1139,0.1143]}],[{"header":{"parameterUnit":"m.s-1","parameterCategory":2,"la1":30.2991,"la2":30.254,"lo1":-89.0895,"lo2":-89.0444,"dy":0.0017,"dx":0.0017,"nx":28,"ny":28,"refTime":"2023-07-26T03:00:00:Z","depth":"2","parameterNumber":2,"parameterNumberName":"U-component_of_CURRENTS"},"data":[0,0,0,0,0,0,0,0,0,0,0,0,0,0,0,0,0,0,0,0,0,0,0,0,0,0,0,0,0,0,0,0,0,0,0,0,0,0,0,0,0,0,0,0,0,0,0,0,0,0,0,0,0,0,0,0,0,0,-0.3092,-0.3091,0,-0.3022,-0.3021,-0.302,-0.3,-0.3001,-0.3002,-0.3002,-0.2876,-0.2872,-0.2868,0,0,0,0,0,0,0,0,0,0,0,0,0,-0.3132,-0.3131,-0.3092,-0.3091,-0.3091,-0.3022,-0.3021,-0.3019,-0.3,-0.3001,-0.3002,-0.3003,-0.2877,-0.2872,-0.2867,0,0,0,0,0,0,0,0,0,0,0,0,0,-0.309,-0.3131,-0.3092,-0.3075,-0.3074,-0.3022,-0.3021,-0.3019,-0.3,-0.3001,-0.3002,-0.3003,-0.2879,-0.2873,-0.2867,-0.2808,0,0,-0.2848,-0.2846,0,0,0,0,0,0,0,0,-0.3093,-0.3088,-0.3078,-0.3077,-0.3074,-0.3024,-0.2989,-0.2947,-0.3,-0.3024,-0.3002,-0.3004,-0.2922,-0.2912,-0.2892,-0.2802,-0.2796,-0.2848,-0.2844,-0.2841,-0.284,0,0,0,0,0,0,0,-0.3096,-0.3091,-0.3061,-0.3078,-0.3075,-0.3045,-0.3041,-0.298,-0.2964,-0.3022,-0.3021,-0.3019,-0.292,-0.2898,-0.2889,-0.2795,-0.2848,-0.2843,-0.2839,-0.2836,-0.2614,-0.2612,0,0,0,0,0,0,-0.3114,-0.3094,-0.3063,-0.3059,-0.309,-0.3044,-0.3039,-0.3036,-0.2966,-0.2957,-0.3018,-0.3018,-0.2908,-0.2896,-0.2884,-0.2771,-0.2842,-0.2836,-0.2832,-0.2616,-0.2614,-0.2611,0,0,0,0,0,0,-0.3115,-0.3112,-0.3066,-0.3078,-0.307,-0.3043,-0.3039,-0.3034,-0.3011,-0.2964,-0.2954,-0.3001,-0.2908,-0.2893,-0.281,-0.2768,-0.2833,-0.2828,-0.2619,-0.2616,-0.2612,-0.2569,0,0,0,0,0,0,-0.3117,-0.3113,-0.3108,-0.3079,-0.307,-0.3019,-0.3039,-0.3032,-0.3009,-0.3009,-0.2945,-0.2935,-0.2908,-0.2819,-0.2804,-0.2761,-0.2823,-0.2622,-0.2618,-0.2614,-0.2574,-0.2565,-0.2557,0,0,0,0,0,-0.3118,-0.3104,-0.3108,-0.3104,-0.3068,-0.3017,-0.3008,-0.2991,-0.3008,-0.2978,-0.2937,-0.2937,-0.2782,-0.2811,-0.2795,-0.2749,-0.2624,-0.2619,-0.2614,-0.2577,-0.2567,-0.2558,0,0,0,0,0,0,-0.3112,-0.3101,-0.3104,-0.3086,-0.305,-0.3015,-0.2992,-0.2986,-0.2931,-0.2943,-0.2899,-0.2883,-0.2797,-0.2775,-0.2809,-0.2672,-0.2706,-0.2697,-0.2684,-0.2673,-0.2665,-0.2667,-0.2818,0,0,0,0,0,-0.3112,-0.3101,-0.3078,-0.3058,-0.3046,-0.302,-0.2999,-0.2994,-0.2951,-0.293,-0.2881,-0.283,-0.2761,-0.2722,-0.2664,-0.2582,-0.2555,-0.2543,-0.2535,-0.2529,-0.2517,-0.2452,-0.2437,-0.2594,-0.2594,-0.2595,0,0,-0.3104,-0.3097,-0.3089,-0.3056,-0.3034,-0.299,-0.3008,-0.2982,-0.2932,-0.2922,-0.2833,-0.2798,-0.2733,-0.2643,-0.2603,-0.2619,-0.2464,-0.2522,-0.2517,-0.2509,-0.2445,-0.243,-0.2416,-0.2591,-0.2592,-0.2592,0,0,-0.307,-0.3076,-0.305,-0.3021,-0.2997,-0.2974,-0.2966,-0.2928,-0.2897,-0.2818,-0.2796,-0.2728,-0.2631,-0.2566,-0.2523,-0.2431,-0.2426,-0.2427,-0.2378,-0.2315,-0.2302,-0.229,-0.2218,-0.22,-0.242,-0.242,-0.242,0,-0.3057,-0.3023,-0.3028,-0.2991,-0.2959,-0.2964,-0.2913,-0.2875,-0.2809,-0.2765,-0.2786,-0.263,-0.2584,-0.2455,-0.243,-0.241,-0.2384,-0.2424,-0.2306,-0.2294,-0.2282,-0.2211,-0.2192,-0.2417,-0.2417,-0.2418,-0.2418,0,-0.3,-0.2968,-0.2948,-0.2902,-0.2868,-0.2829,-0.2791,-0.2746,-0.2726,-0.2685,-0.2575,-0.2516,-0.2428,-0.24,-0.2385,-0.2273,-0.2282,-0.2308,-0.2337,-0.2264,-0.2193,-0.2174,-0.2413,-0.2414,-0.2415,-0.2416,0,0,-0.2963,-0.2916,-0.2906,-0.2868,-0.2823,-0.2785,-0.2708,-0.2621,-0.2568,-0.2511,-0.2421,-0.231,-0.2317,-0.2269,-0.2246,-0.2188,-0.2081,-0.2221,-0.2219,-0.2159,-0.1938,-0.1855,-0.1827,-0.2104,-0.2101,-0.2098,-0.1915,0,-0.2902,-0.2826,-0.2816,-0.2722,-0.267,-0.2652,-0.2576,-0.2513,-0.2462,-0.238,-0.2321,-0.224,-0.2255,-0.2231,-0.2169,-0.2109,-0.2032,-0.2128,-0.2008,-0.2004,-0.1948,-0.1802,-0.1746,-0.157,-0.1896,-0.1893,-0.1891,0,-0.2828,-0.2788,-0.2698,-0.2626,-0.2605,-0.2559,-0.2459,-0.2398,-0.2301,-0.2268,-0.2196,-0.2171,-0.2059,-0.2112,-0.195,-0.2021,-0.1969,-0.1928,-0.192,-0.1846,-0.1885,-0.1697,-0.1524,-0.1859,-0.1862,-0.1864,-0.1866,0,-0.2771,-0.2694,-0.2621,-0.2594,-0.2522,-0.248,-0.2445,-0.2359,-0.2292,-0.221,-0.2164,-0.2061,-0.2002,-0.1929,-0.1856,-0.1902,-0.1697,-0.1746,-0.1606,-0.1601,-0.1525,-0.1517,-0.1617,-0.1617,-0.1617,-0.1618,-0.1618,0,-0.2688,-0.2624,-0.2598,-0.2553,-0.2466,-0.2452,-0.2355,-0.231,-0.2238,-0.2144,-0.2121,-0.2031,-0.1961,-0.1851,-0.1806,-0.1627,-0.1646,-0.1546,-0.1527,-0.1505,-0.1497,-0.1745,-0.1763,-0.1611,-0.1612,-0.1614,-0.1615,0,-0.2601,-0.2591,-0.2496,-0.2444,-0.2428,-0.2369,-0.2305,-0.2241,-0.2203,-0.2083,-0.2059,-0.1966,-0.1812,-0.1726,-0.158,-0.1527,-0.1399,-0.1341,-0.1313,-0.1291,-0.1356,-0.1373,-0.1126,-0.1121,-0.1117,-0.1114,-0.1111,0,-0.2534,-0.2481,-0.2414,-0.2375,-0.2348,-0.2283,-0.2237,-0.2208,-0.2142,-0.2028,-0.1961,-0.181,-0.168,-0.1434,-0.1318,-0.1158,-0.1236,-0.1005,-0.106,-0.1288,-0.1295,-0.132,-0.1342,-0.0939,-0.0935,-0.0932,-0.0929,0,-0.2397,-0.2386,-0.2332,-0.2251,-0.2205,-0.2137,-0.2085,-0.2035,-0.1988,-0.1917,-0.1794,-0.17,-0.146,-0.1263,-0.1064,-0.0965,-0.1028,-0.0927,-0.1136,-0.1082,-0.1099,-0.1112,-0.1142,-0.0899,-0.0902,-0.0904,-0.0906,-0.0907,-0.2298,-0.2231,-0.2178,-0.2089,-0.2046,-0.198,-0.1914,-0.1881,-0.1793,-0.1661,-0.1646,-0.145,-0.1315,-0.0954,-0.0844,-0.0719,-0.0782,-0.0734,-0.0749,-0.0767,-0.0788,-0.0798,-0.0544,-0.0545,-0.0546,-0.0546,-0.0547,0,-0.215,-0.209,-0.2016,-0.1921,-0.1848,-0.1858,-0.1785,-0.1724,-0.1624,-0.1512,-0.1412,-0.1099,-0.0944,-0.0788,-0.0597,-0.0525,-0.0562,-0.0447,-0.0552,-0.0579,-0.0604,-0.0624,-0.0332,-0.0332,-0.0331,-0.0331,0,0,-0.2067,-0.1957,-0.1915,-0.1745,-0.1688,-0.157,-0.1522,-0.1469,-0.138,-0.117,-0.1008,-0.0978,-0.0846,-0.0647,-0.056,-0.0456,-0.0524,-0.0395,-0.0569,-0.0729,-0.0755,-0.0759,-0.0817,0,0,0,0,0]},{"header":{"parameterUnit":"m.s-1","parameterCategory":2,"la1":30.2991,"la2":30.254,"lo1":-89.0895,"lo2":-89.0444,"dy":0.0017,"dx":0.0017,"nx":28,"ny":28,"refTime":"2023-07-26T03:00:00:Z","depth":"2","parameterNumber":3,"parameterNumberName":"V-component_of_CURRENTS"},"data":[0,0,0,0,0,0,0,0,0,0,0,0,0,0,0,0,0,0,0,0,0,0,0,0,0,0,0,0,0,0,0,0,0,0,0,0,0,0,0,0,0,0,0,0,0,0,0,0,0,0,0,0,0,0,0,0,0,0,0.0765,0.0767,0,0.0964,0.0967,0.0969,0.1085,0.1085,0.1086,0.1086,0.1263,0.1267,0.1271,0,0,0,0,0,0,0,0,0,0,0,0,0,0.0574,0.0576,0.0765,0.0767,0.077,0.0964,0.0967,0.0969,0.1085,0.1085,0.1086,0.1086,0.1261,0.1266,0.1271,0,0,0,0,0,0,0,0,0,0,0,0,0,0.0703,0.0577,0.0764,0.0851,0.086,0.0963,0.0967,0.097,0.1085,0.1085,0.1086,0.1087,0.126,0.1266,0.1272,0.1298,0,0,0.1292,0.1294,0,0,0,0,0,0,0,0,0.0696,0.071,0.0836,0.0845,0.0856,0.1,0.0964,0.1079,0.1084,0.0999,0.1086,0.1087,0.1172,0.1186,0.1222,0.1306,0.1314,0.1292,0.1296,0.1299,0.1301,0,0,0,0,0,0,0,0.0686,0.0703,0.0844,0.0838,0.0851,0.091,0.0929,0.0987,0.1079,0.1007,0.1016,0.1038,0.1178,0.1216,0.1227,0.1316,0.1292,0.1298,0.1302,0.1304,0.141,0.1409,0,0,0,0,0,0,0.0657,0.0694,0.0837,0.085,0.0776,0.0913,0.0933,0.0953,0.1079,0.1099,0.1037,0.1042,0.1204,0.122,0.1234,0.1238,0.1299,0.1305,0.1309,0.1411,0.141,0.1409,0,0,0,0,0,0,0.0652,0.0667,0.0829,0.0776,0.0801,0.0915,0.0937,0.0957,0.0974,0.1102,0.1122,0.103,0.1206,0.1225,0.1258,0.1247,0.1308,0.1314,0.1412,0.1411,0.1409,0.1267,0,0,0,0,0,0,0.0645,0.0664,0.0653,0.0774,0.0803,0.0853,0.0937,0.096,0.0988,0.0996,0.1103,0.1122,0.1208,0.1248,0.1264,0.1256,0.1319,0.1414,0.1412,0.141,0.1273,0.1261,0.125,0,0,0,0,0,0.0638,0.0612,0.0651,0.0668,0.0789,0.0851,0.0869,0.0954,0.0986,0.0974,0.105,0.1118,0.1248,0.1251,0.1271,0.1265,0.1415,0.1412,0.141,0.1278,0.1263,0.1251,0,0,0,0,0,0,0.0511,0.0625,0.0671,0.0678,0.0744,0.087,0.0863,0.0926,0.098,0.0978,0.1099,0.1122,0.1149,0.1218,0.1219,0.129,0.1345,0.1346,0.1238,0.1225,0.1213,0.1189,0.1324,0,0,0,0,0,0.048,0.0496,0.0609,0.0608,0.063,0.0739,0.0769,0.0827,0.0902,0.0926,0.1005,0.1087,0.116,0.1196,0.1261,0.1292,0.1366,0.1303,0.1292,0.1282,0.1275,0.1407,0.1407,0.1401,0.1401,0.1401,0,0,0.0431,0.0494,0.0502,0.0582,0.0637,0.0667,0.0756,0.0779,0.0814,0.0934,0.0968,0.1037,0.1155,0.1196,0.1216,0.1251,0.1308,0.1279,0.1269,0.1268,0.1405,0.1406,0.1407,0.14,0.14,0.14,0,0,0.0349,0.0389,0.0383,0.043,0.0502,0.0575,0.0568,0.0669,0.0714,0.0755,0.0859,0.0917,0.1011,0.1112,0.1174,0.1137,0.1236,0.1147,0.1082,0.121,0.1212,0.1215,0.1246,0.1253,0.1152,0.1151,0.1151,0,0.0281,0.0309,0.0382,0.0392,0.0426,0.0522,0.0527,0.0586,0.0686,0.0731,0.0735,0.0903,0.0984,0.1092,0.1072,0.1114,0.1166,0.1124,0.1196,0.1201,0.1207,0.1239,0.1249,0.1144,0.1145,0.1146,0.1147,0,0.0223,0.0237,0.0222,0.0284,0.0319,0.0325,0.0427,0.0455,0.0509,0.0598,0.0674,0.078,0.0891,0.0921,0.098,0.1062,0.1073,0.1158,0.1229,0.1199,0.1234,0.1246,0.1134,0.1137,0.1139,0.1141,0,0,0.0094,0.0172,0.0164,0.0193,0.0266,0.0297,0.0328,0.042,0.0468,0.0532,0.061,0.0706,0.0763,0.0834,0.0924,0.1018,0.1071,0.1077,0.1088,0.1101,0.1277,0.1205,0.1212,0.1173,0.1176,0.1178,0.1262,0,0.0028,0.0037,0.0095,0.01,0.0118,0.0209,0.0244,0.0333,0.0417,0.0505,0.0623,0.0706,0.0737,0.0777,0.0872,0.1049,0.1107,0.1035,0.131,0.1316,0.1255,0.1227,0.1124,0.1185,0.1275,0.1277,0.1279,0,-0.0047,-0.0016,-0.0023,0.0056,0.0068,0.0075,0.0171,0.022,0.0365,0.0424,0.052,0.0628,0.0752,0.0786,0.1023,0.0972,0.1083,0.1201,0.121,0.1208,0.1271,0.1245,0.1206,0.1302,0.13,0.1298,0.1297,0,-0.0142,-0.0099,-0.01,-0.008,0.0011,0.0017,0.006,0.0182,0.0244,0.037,0.043,0.0592,0.0684,0.0858,0.1032,0.105,0.1284,0.1373,0.1396,0.139,0.1388,0.1377,0.1522,0.1522,0.1522,0.1522,0.1521,0,-0.022,-0.0223,-0.0151,-0.0152,-0.0142,-0.0067,-0.0037,0.0033,0.0147,0.0234,0.0366,0.0466,0.0712,0.0874,0.1026,0.1209,0.128,0.1362,0.1421,0.1324,0.1307,0.15,0.1496,0.1525,0.1524,0.1523,0.1523,0,-0.0326,-0.0284,-0.0273,-0.0206,-0.0191,-0.0193,-0.0115,-0.0065,0.0022,0.0139,0.017,0.0394,0.058,0.0776,0.1072,0.1198,0.139,0.1427,0.1227,0.126,0.1409,0.1397,0.1505,0.1503,0.1502,0.1501,0.15,0,-0.037,-0.0381,-0.0332,-0.0328,-0.0311,-0.029,-0.0257,-0.0156,-0.0084,0.0108,0.0175,0.0356,0.0511,0.0839,0.1079,0.1291,0.1316,0.1298,0.1336,0.1367,0.1414,0.1404,0.1394,0.1257,0.1254,0.1252,0.125,0,-0.0445,-0.0445,-0.0429,-0.0422,-0.0407,-0.0355,-0.0302,-0.0256,-0.0108,0.0,0.0179,0.0305,0.0588,0.08,0.1015,0.1142,0.1258,0.1258,0.1406,0.1259,0.1137,0.1181,0.118,0.1229,0.1231,0.1233,0.1234,0.1235,-0.0505,-0.0516,-0.0504,-0.0499,-0.0474,-0.0412,-0.0368,-0.0268,-0.0152,0.003,0.0152,0.0339,0.0468,0.08,0.0928,0.1095,0.1199,0.1214,0.1222,0.1231,0.117,0.1051,0.111,0.1111,0.1112,0.1113,0.1114,0,-0.0543,-0.0557,-0.0565,-0.0537,-0.0517,-0.0489,-0.0374,-0.0296,-0.0155,0.0012,0.0156,0.0265,0.0461,0.0616,0.0896,0.1045,0.1064,0.0988,0.0981,0.1,0.1017,0.0945,0.0826,0.0826,0.0825,0.0825,0,0,-0.0561,-0.0583,-0.0583,-0.0571,-0.0563,-0.0492,-0.0424,-0.0297,-0.0148,-0.0002,0.0131,0.0265,0.0475,0.0538,0.0655,0.0781,0.0861,0.0764,0.0983,0.0978,0.0993,0.1132,0.104,0,0,0,0,0]}],[{"header":{"parameterUnit":"m.s-1","parameterCategory":2,"la1":30.2991,"la2":30.254,"lo1":-89.0895,"lo2":-89.0444,"dy":0.0017,"dx":0.0017,"nx":28,"ny":28,"refTime":"2023-07-26T03:00:00:Z","depth":"4","parameterNumber":2,"parameterNumberName":"U-component_of_CURRENTS"},"data":[0,0,0,0,0,0,0,0,0,0,0,0,0,0,0,0,0,0,0,0,0,0,0,0,0,0,0,0,0,0,0,0,0,0,0,0,0,0,0,0,0,0,0,0,0,0,0,0,0,0,0,0,0,0,0,0,0,0,-0.0992,-0.0993,0,-0.1111,-0.1113,-0.1115,-0.1218,-0.1219,-0.1219,-0.122,-0.134,-0.1342,-0.1345,0,0,0,0,0,0,0,0,0,0,0,0,0,-0.0886,-0.0887,-0.0991,-0.0993,-0.0994,-0.1111,-0.1113,-0.1115,-0.1218,-0.1219,-0.122,-0.1221,-0.1339,-0.1342,-0.1345,0,0,0,0,0,0,0,0,0,0,0,0,0,-0.0965,-0.0888,-0.0991,-0.1056,-0.1063,-0.1111,-0.1113,-0.1116,-0.1218,-0.1219,-0.122,-0.1221,-0.1338,-0.1342,-0.1345,-0.1344,0,0,-0.1357,-0.1358,0,0,0,0,0,0,0,0,-0.096,-0.0969,-0.1046,-0.1052,-0.1059,-0.1147,-0.112,-0.1191,-0.1217,-0.1163,-0.122,-0.1222,-0.1272,-0.1281,-0.1307,-0.135,-0.1355,-0.1357,-0.1359,-0.1361,-0.1362,0,0,0,0,0,0,0,-0.0955,-0.0965,-0.1043,-0.1046,-0.1055,-0.1091,-0.1103,-0.1134,-0.1212,-0.1168,-0.1175,-0.1181,-0.1277,-0.1303,-0.131,-0.1357,-0.1357,-0.136,-0.1362,-0.1364,-0.1525,-0.1527,0,0,0,0,0,0,-0.0929,-0.0959,-0.1039,-0.1046,-0.1007,-0.1091,-0.1106,-0.1121,-0.1212,-0.1226,-0.118,-0.1185,-0.1296,-0.1306,-0.1315,-0.1364,-0.1361,-0.1364,-0.1366,-0.1523,-0.1526,-0.1528,0,0,0,0,0,0,-0.0926,-0.0935,-0.1034,-0.1002,-0.1016,-0.1091,-0.1108,-0.1123,-0.1181,-0.1221,-0.1236,-0.1225,-0.1298,-0.131,-0.1347,-0.1368,-0.1366,-0.1369,-0.1521,-0.1524,-0.1527,-0.1434,0,0,0,0,0,0,-0.0923,-0.0934,-0.0938,-0.1,-0.1017,-0.1067,-0.1107,-0.1124,-0.1179,-0.1188,-0.1264,-0.1275,-0.1299,-0.1341,-0.1351,-0.1373,-0.1372,-0.1518,-0.1522,-0.1526,-0.1434,-0.1433,-0.1433,0,0,0,0,0,-0.0919,-0.0926,-0.0938,-0.0948,-0.1021,-0.1067,-0.108,-0.1139,-0.118,-0.1198,-0.1243,-0.1274,-0.1375,-0.1344,-0.1355,-0.1379,-0.1516,-0.1521,-0.1526,-0.1435,-0.1434,-0.1433,0,0,0,0,0,0,-0.0888,-0.0938,-0.0953,-0.0976,-0.1015,-0.1083,-0.1103,-0.1152,-0.1207,-0.1209,-0.1272,-0.1284,-0.1347,-0.1377,-0.1342,-0.1448,-0.1463,-0.147,-0.1391,-0.139,-0.1389,-0.1478,-0.1375,0,0,0,0,0,-0.0877,-0.0897,-0.0944,-0.0963,-0.0979,-0.1046,-0.1075,-0.1107,-0.1159,-0.1188,-0.1261,-0.1324,-0.1372,-0.1387,-0.1449,-0.147,-0.1492,-0.151,-0.1509,-0.1507,-0.1593,-0.16,-0.1606,-0.1544,-0.1543,-0.1543,0,0,-0.0869,-0.0899,-0.091,-0.0957,-0.0994,-0.1022,-0.1069,-0.1101,-0.1153,-0.1186,-0.1292,-0.1332,-0.1387,-0.1429,-0.146,-0.1448,-0.1518,-0.1513,-0.151,-0.16,-0.1605,-0.1611,-0.1616,-0.1547,-0.1546,-0.1546,0,0,-0.0865,-0.0889,-0.0904,-0.0932,-0.0969,-0.1003,-0.1018,-0.1099,-0.1164,-0.124,-0.1284,-0.1348,-0.1434,-0.1475,-0.1502,-0.1543,-0.1531,-0.1546,-0.1583,-0.1584,-0.1588,-0.1593,-0.1528,-0.1528,-0.152,-0.152,-0.152,0,-0.0855,-0.0884,-0.0914,-0.0936,-0.0945,-0.1001,-0.1009,-0.1088,-0.1183,-0.123,-0.1275,-0.1437,-0.1483,-0.1526,-0.1555,-0.1546,-0.1509,-0.1556,-0.1577,-0.1584,-0.159,-0.1524,-0.1525,-0.1516,-0.1516,-0.1517,-0.1517,0,-0.0852,-0.0887,-0.0899,-0.094,-0.0946,-0.0964,-0.1032,-0.1105,-0.1192,-0.1265,-0.1384,-0.1461,-0.1563,-0.1568,-0.1585,-0.1642,-0.1582,-0.1578,-0.1562,-0.159,-0.1518,-0.152,-0.151,-0.1512,-0.1513,-0.1514,0,0,-0.0816,-0.0885,-0.089,-0.091,-0.094,-0.0949,-0.1025,-0.11,-0.1179,-0.1308,-0.1398,-0.1538,-0.16,-0.1646,-0.1657,-0.1677,-0.1659,-0.1648,-0.1649,-0.1554,-0.1589,-0.1452,-0.144,-0.1613,-0.1616,-0.1618,-0.148,0,-0.0814,-0.0848,-0.0866,-0.0896,-0.0916,-0.0959,-0.1034,-0.1099,-0.1201,-0.1313,-0.1419,-0.1533,-0.1613,-0.1651,-0.1689,-0.1699,-0.1681,-0.1696,-0.1611,-0.161,-0.146,-0.1447,-0.1626,-0.1483,-0.1483,-0.1484,-0.1484,0,-0.0802,-0.0832,-0.0846,-0.0901,-0.0907,-0.0939,-0.1013,-0.1084,-0.1223,-0.1306,-0.1424,-0.1517,-0.163,-0.1675,-0.174,-0.1725,-0.1691,-0.1679,-0.167,-0.1614,-0.1484,-0.1483,-0.149,-0.1489,-0.1489,-0.1489,-0.1488,0,-0.0754,-0.0815,-0.082,-0.0834,-0.0904,-0.0939,-0.0986,-0.1097,-0.1157,-0.1314,-0.1347,-0.1508,-0.1573,-0.1628,-0.1682,-0.1696,-0.1677,-0.167,-0.1499,-0.1483,-0.1685,-0.1684,-0.1694,-0.1695,-0.1695,-0.1695,-0.1696,0,-0.0735,-0.0756,-0.0827,-0.0841,-0.0875,-0.092,-0.0978,-0.1073,-0.1168,-0.12,-0.1354,-0.1374,-0.1572,-0.1588,-0.1632,-0.1574,-0.1637,-0.1541,-0.1465,-0.1634,-0.163,-0.1679,-0.1679,-0.169,-0.1691,-0.1692,-0.1693,0,-0.0682,-0.0735,-0.0762,-0.0837,-0.0864,-0.0888,-0.0953,-0.0997,-0.1105,-0.1137,-0.1184,-0.128,-0.1314,-0.1425,-0.1471,-0.1472,-0.1455,-0.1389,-0.1519,-0.1448,-0.1261,-0.1259,-0.1215,-0.1209,-0.1205,-0.1201,-0.1198,0,-0.0655,-0.0673,-0.073,-0.0738,-0.0781,-0.0831,-0.0857,-0.0971,-0.0981,-0.1045,-0.1013,-0.108,-0.1143,-0.1071,-0.1207,-0.1246,-0.1245,-0.1217,-0.1343,-0.1295,-0.1225,-0.123,-0.1234,-0.1191,-0.1189,-0.1188,-0.1187,0,-0.0609,-0.0636,-0.0651,-0.067,-0.07,-0.0698,-0.074,-0.0733,-0.0828,-0.0914,-0.0862,-0.0908,-0.0878,-0.0962,-0.0987,-0.1019,-0.1264,-0.117,-0.1182,-0.13,-0.1264,-0.1201,-0.121,-0.1171,-0.1173,-0.1175,-0.1176,0,-0.0571,-0.0561,-0.0588,-0.0592,-0.0599,-0.0561,-0.0598,-0.0589,-0.0622,-0.0714,-0.0667,-0.0726,-0.0816,-0.0826,-0.0839,-0.089,-0.092,-0.0949,-0.0973,-0.0991,-0.1002,-0.0929,-0.0684,0,0,0,0,0,-0.0529,-0.0511,-0.0503,-0.0494,-0.0477,-0.0485,-0.0501,-0.0534,-0.0611,-0.0554,-0.0633,-0.0618,-0.0666,-0.0666,-0.0686,-0.0757,-0.0928,-0.0777,-0.0974,-0.1083,-0.1102,-0.1146,0,0,0,0,0,0,-0.0503,-0.0501,-0.0487,-0.0408,-0.0362,-0.0343,-0.0346,-0.0397,-0.0363,-0.0455,-0.0461,-0.0575,-0.0604,-0.0651,-0.0667,-0.0686,-0.0799,-0.0838,-0.0837,-0.1073,-0.109,-0.1104,-0.1156,0,0,0,0,0]},{"header":{"parameterUnit":"m.s-1","parameterCategory":2,"la1":30.2991,"la2":30.254,"lo1":-89.0895,"lo2":-89.0444,"dy":0.0017,"dx":0.0017,"nx":28,"ny":28,"refTime":"2023-07-26T03:00:00:Z","depth":"4","parameterNumber":3,"parameterNumberName":"V-component_of_CURRENTS"},"data":[0,0,0,0,0,0,0,0,0,0,0,0,0,0,0,0,0,0,0,0,0,0,0,0,0,0,0,0,0,0,0,0,0,0,0,0,0,0,0,0,0,0,0,0,0,0,0,0,0,0,0,0,0,0,0,0,0,0,-0.0408,-0.0407,0,-0.0386,-0.0387,-0.0387,-0.0394,-0.0394,-0.0394,-0.0394,-0.0352,-0.0351,-0.035,0,0,0,0,0,0,0,0,0,0,0,0,0,-0.0411,-0.0412,-0.0408,-0.0407,-0.0406,-0.0386,-0.0387,-0.0387,-0.0394,-0.0394,-0.0394,-0.0394,-0.0352,-0.0351,-0.035,0,0,0,0,0,0,0,0,0,0,0,0,0,-0.0407,-0.0412,-0.0408,-0.0403,-0.0402,-0.0386,-0.0387,-0.0387,-0.0394,-0.0394,-0.0394,-0.0394,-0.0353,-0.0351,-0.035,-0.0342,0,0,-0.0345,-0.0344,0,0,0,0,0,0,0,0,-0.0408,-0.0408,-0.0404,-0.0403,-0.0402,-0.0387,-0.0372,-0.0369,-0.0394,-0.0403,-0.0394,-0.0393,-0.0358,-0.0356,-0.0361,-0.034,-0.0338,-0.0345,-0.0344,-0.0343,-0.0343,0,0,0,0,0,0,0,-0.0408,-0.0408,-0.0405,-0.0403,-0.0402,-0.0386,-0.0387,-0.0372,-0.0386,-0.0402,-0.0401,-0.039,-0.0358,-0.0363,-0.036,-0.0338,-0.0345,-0.0343,-0.0342,-0.0342,-0.0327,-0.0327,0,0,0,0,0,0,-0.0401,-0.0409,-0.0406,-0.0404,-0.0398,-0.0386,-0.0387,-0.0397,-0.0386,-0.0383,-0.039,-0.039,-0.0365,-0.0362,-0.0358,-0.0401,-0.0343,-0.0342,-0.0341,-0.0326,-0.0327,-0.0328,0,0,0,0,0,0,-0.0402,-0.0402,-0.0406,-0.04,-0.0399,-0.0386,-0.0397,-0.0396,-0.0403,-0.0376,-0.0373,-0.0396,-0.0365,-0.0361,-0.0371,-0.0397,-0.0341,-0.0339,-0.0326,-0.0326,-0.0327,-0.0453,0,0,0,0,0,0,-0.0403,-0.0403,-0.0413,-0.04,-0.0399,-0.0413,-0.0397,-0.0396,-0.0393,-0.0393,-0.038,-0.0377,-0.0365,-0.0374,-0.037,-0.0394,-0.0338,-0.0325,-0.0326,-0.0327,-0.0448,-0.0458,-0.0466,0,0,0,0,0,-0.0403,-0.0412,-0.0414,-0.0413,-0.0412,-0.0413,-0.0413,-0.0406,-0.0393,-0.0409,-0.0407,-0.0377,-0.0376,-0.0374,-0.0369,-0.0393,-0.0324,-0.0326,-0.0327,-0.0444,-0.0456,-0.0466,0,0,0,0,0,0,-0.0418,-0.0412,-0.0415,-0.0423,-0.0425,-0.0413,-0.0415,-0.0408,-0.0418,-0.0421,-0.0395,-0.0392,-0.041,-0.0376,-0.0374,-0.0387,-0.034,-0.034,-0.0431,-0.0441,-0.045,-0.0412,-0.0337,0,0,0,0,0,-0.0425,-0.0435,-0.0428,-0.0438,-0.0437,-0.0428,-0.0426,-0.0429,-0.0427,-0.0432,-0.0424,-0.041,-0.0409,-0.0407,-0.04,-0.0409,-0.0352,-0.0414,-0.0423,-0.0431,-0.0394,-0.0375,-0.0379,-0.0332,-0.0332,-0.0331,0,0,-0.0432,-0.0429,-0.0435,-0.0442,-0.044,-0.045,-0.0429,-0.0437,-0.0454,-0.0424,-0.0449,-0.0446,-0.0419,-0.0443,-0.0445,-0.042,-0.0415,-0.0433,-0.0441,-0.0398,-0.0377,-0.0381,-0.0386,-0.0332,-0.0332,-0.0332,0,0,-0.0443,-0.0452,-0.0461,-0.0471,-0.0473,-0.0471,-0.0474,-0.0477,-0.0488,-0.051,-0.0498,-0.0508,-0.0499,-0.0498,-0.049,-0.0533,-0.0468,-0.053,-0.0547,-0.0532,-0.0536,-0.0538,-0.0477,-0.0473,-0.0533,-0.0533,-0.0533,0,-0.0449,-0.0469,-0.0464,-0.0479,-0.0487,-0.048,-0.05,-0.0509,-0.0522,-0.0537,-0.0529,-0.0531,-0.052,-0.0538,-0.0555,-0.0555,-0.0515,-0.0521,-0.0546,-0.0547,-0.0547,-0.0484,-0.0478,-0.0539,-0.0538,-0.0538,-0.0537,0,-0.0466,-0.0492,-0.0497,-0.0518,-0.0529,-0.0549,-0.0557,-0.0586,-0.0591,-0.0594,-0.062,-0.0613,-0.0606,-0.0616,-0.0595,-0.0601,-0.0561,-0.0569,-0.0524,-0.056,-0.049,-0.0482,-0.0548,-0.0546,-0.0544,-0.0542,0,0,-0.0461,-0.0501,-0.0507,-0.0534,-0.0558,-0.057,-0.0609,-0.0638,-0.0668,-0.0674,-0.0699,-0.0697,-0.0682,-0.0667,-0.0657,-0.0633,-0.0616,-0.0597,-0.0594,-0.0545,-0.0545,-0.0462,-0.0443,-0.0641,-0.064,-0.064,-0.0498,0,-0.0479,-0.0514,-0.0534,-0.0584,-0.0604,-0.0635,-0.0671,-0.0701,-0.0723,-0.0752,-0.0735,-0.0751,-0.0705,-0.072,-0.0688,-0.0645,-0.0597,-0.065,-0.0506,-0.0499,-0.043,-0.0433,-0.0637,-0.0491,-0.0489,-0.0487,-0.0486,0,-0.0495,-0.0516,-0.0561,-0.063,-0.0643,-0.0679,-0.0747,-0.0781,-0.0817,-0.0835,-0.0836,-0.082,-0.0788,-0.0752,-0.0645,-0.0684,-0.0598,-0.0547,-0.0542,-0.0401,-0.04,-0.0442,-0.047,-0.0471,-0.0472,-0.0473,-0.0474,0,-0.0486,-0.0546,-0.0584,-0.0606,-0.0669,-0.0716,-0.0756,-0.0808,-0.0841,-0.0886,-0.0904,-0.087,-0.0852,-0.0757,-0.0626,-0.0647,-0.0485,-0.0517,-0.0344,-0.0336,-0.0401,-0.0399,-0.0409,-0.0409,-0.0409,-0.041,-0.041,0,-0.05,-0.0539,-0.0591,-0.0614,-0.0679,-0.0725,-0.0799,-0.0848,-0.0895,-0.0915,-0.0933,-0.0917,-0.0851,-0.0754,-0.0634,-0.0439,-0.0487,-0.0311,-0.0292,-0.0456,-0.0463,-0.0394,-0.0395,-0.0404,-0.0405,-0.0406,-0.0407,0,-0.0496,-0.0528,-0.0582,-0.0651,-0.0679,-0.0728,-0.0817,-0.0863,-0.0915,-0.0943,-0.0954,-0.0943,-0.0824,-0.0713,-0.0557,-0.0441,-0.0283,-0.0194,-0.0332,-0.0329,-0.0139,-0.0148,-0.0004,-0.0,0.0003,0.0006,0.0009,0,-0.0496,-0.052,-0.0593,-0.0627,-0.0668,-0.0741,-0.0791,-0.0864,-0.0885,-0.0927,-0.0912,-0.0855,-0.0813,-0.0525,-0.0418,-0.0183,-0.0144,-0.0057,-0.012,-0.01,-0.0097,-0.0111,-0.0123,0.0014,0.0015,0.0016,0.0017,0,-0.0495,-0.0524,-0.0561,-0.0617,-0.0678,-0.0743,-0.08,-0.0807,-0.0867,-0.0912,-0.0852,-0.076,-0.0619,-0.0465,-0.0282,-0.0114,-0.0129,-0.002,-0.0028,-0.0086,-0.0076,-0.0079,-0.0096,0.0029,0.0028,0.0026,0.0026,0,-0.0491,-0.0515,-0.0555,-0.0609,-0.0676,-0.0719,-0.0762,-0.0765,-0.0791,-0.0812,-0.0772,-0.069,-0.0652,-0.042,-0.0242,-0.0086,-0.0056,-0.0012,-0.0019,-0.0031,-0.009,-0.0085,0.0062,0,0,0,0,0,-0.0475,-0.0497,-0.0543,-0.06,-0.0661,-0.0701,-0.0751,-0.078,-0.0808,-0.0749,-0.0761,-0.0627,-0.042,-0.0348,-0.017,-0.0172,-0.0027,0.0044,0.002,0.0097,0.0083,0.0025,0,0,0,0,0,0,-0.0469,-0.0503,-0.0527,-0.0571,-0.0607,-0.0675,-0.0711,-0.0738,-0.0685,-0.0701,-0.0588,-0.0563,-0.0357,-0.052,-0.0164,-0.0123,-0.0105,0.0126,0.0131,0.0105,0.0093,0.0081,0.0017,0,0,0,0,0]}]]